This is the latest recevied weather packets stored in our database for station/object WA6OOO. If no packets are shown the sender has not sent any weather packets the latest 10 day(s).
| Time | Temp. | Humidity | Pressure | Rain* | Wind** | Luminosity | Snow |
|---|---|---|---|---|---|---|---|
| 1788317101 | 19.44° C | 80% | 1017.2 hPa | 0 mm | - | 0 W/m² | - |
| 1788316795 | 19.44° C | 79% | 1017.1 hPa | 0 mm | - | 0 W/m² | - |
| 1788316492 | 19.44° C | 78% | 1017.1 hPa | 0 mm | - | 1 W/m² | - |
| 1788316191 | 20° C | 78% | 1017.1 hPa | 0 mm | - | 1 W/m² | - |
| 1788315886 | 20° C | 78% | 1017.3 hPa | 0 mm | - | 3 W/m² | - |
| 1788315599 | 20° C | 78% | 1017.1 hPa | 0 mm | - | 5 W/m² | - |
| 1788315276 | 20° C | 77% | 1017 hPa | 0 mm | - | 7 W/m² | - |
| 1788314972 | 20° C | 77% | 1017 hPa | 0 mm | - | 10 W/m² | - |
| 1788314668 | 20° C | 76% | 1017.1 hPa | 0 mm | - | 13 W/m² | - |
| 1788314363 | 20.56° C | 75% | 1017.1 hPa | 0 mm | - | 16 W/m² | - |
| 1788314059 | 20.56° C | 75% | 1017.1 hPa | 0 mm | - | 18 W/m² | - |
| 1788313754 | 20.56° C | 74% | 1017.1 hPa | 0 mm | - | 20 W/m² | - |
| 1788313451 | 21.11° C | 73% | 1017.1 hPa | 0 mm | - | 22 W/m² | - |
| 1788313150 | 21.11° C | 72% | 1017 hPa | 0 mm | - | 38 W/m² | - |
| 1788312846 | 21.67° C | 71% | 1017.2 hPa | 0 mm | - | 45 W/m² | - |
| 1788312541 | 21.67° C | 72% | 1017 hPa | 0 mm | - | 51 W/m² | - |
| 1788312237 | 21.67° C | 72% | 1017 hPa | 0 mm | - | 58 W/m² | - |
| 1788311933 | 21.67° C | 72% | 1017 hPa | 0 mm | - | 67 W/m² | - |
| 1788311633 | 22.22° C | 71% | 1016.9 hPa | 0 mm | - | 75 W/m² | - |
| 1788311332 | 22.22° C | 71% | 1017 hPa | 0 mm | - | 83 W/m² | - |
| 1788311027 | 22.22° C | 70% | 1017 hPa | 0 mm | - | 92 W/m² | - |
| 1788310726 | 22.78° C | 71% | 1016.8 hPa | 0 mm | - | 101 W/m² | - |
| 1788310420 | 22.22° C | 71% | 1017 hPa | 0 mm | - | 113 W/m² | - |
| 1788310116 | 22.78° C | 70% | 1017.1 hPa | 0 mm | - | 125 W/m² | - |
| 1788309811 | 22.78° C | 69% | 1017 hPa | 0 mm | - | 137 W/m² | - |
* Rain latest hour (hover to see other rain measurements)
** Current wind speed in m/s (hover to see current wind gust speed)